| time (UTC) | temp C | wind direction | speed KPH | gust KPH | rain 1hr cm | rain 24hr cm | rain mn cm | humidity % | barometer mb |
| 20260507221539 | 15 | 289 | 0.0 | 4.8 | 0.00 | 0.10 | 0.00 | 33 | 1004.9 |
| 20260507220114 | 15 | 274 | 0.0 | 9.7 | 0.00 | 0.10 | 0.00 | 34 | 1004.9 |
| 20260507214539 | 16 | 315 | 0.0 | 6.4 | 0.00 | 0.10 | 0.00 | 34 | 1004.7 |
| 20260507213025 | 16 | 276 | 0.0 | 8.0 | 0.00 | 0.28 | 0.00 | 35 | 1004.8 |
| 20260507211534 | 16 | 295 | 0.0 | 4.8 | 0.00 | 0.28 | 0.00 | 36 | 1004.8 |
| 20260507210041 | 16 | 276 | 0.0 | 9.7 | 0.00 | 0.28 | 0.00 | 37 | 1004.7 |
| 20260507204513 | 17 | 294 | 0.0 | 8.0 | 0.00 | 0.28 | 0.00 | 34 | 1004.6 |
| 20260507203016 | 17 | 121 | 0.0 | 4.8 | 0.00 | 0.38 | 0.00 | 33 | 1004.5 |
| 20260507201535 | 17 | 260 | 0.0 | 9.7 | 0.00 | 0.38 | 0.00 | 33 | 1004.6 |
| 20260507200019 | 16 | 300 | 1.6 | 9.7 | 0.00 | 0.38 | 0.00 | 34 | 1004.7 |
| 20260507194531 | 16 | 294 | 0.0 | 11.3 | 0.00 | 0.38 | 0.00 | 35 | 1004.8 |
| 20260507193023 | 16 | 252 | 0.0 | 9.7 | 0.00 | 0.53 | 0.00 | 39 | 1004.9 |
| 20260507191520 | 16 | 284 | 3.2 | 12.9 | 0.00 | 0.53 | 0.00 | 34 | 1005.0 |
| 20260507190005 | 16 | 278 | 4.8 | 14.5 | 0.00 | 0.53 | 0.00 | 34 | 1005.1 |
| 20260507184541 | 16 | 252 | 3.2 | 12.9 | 0.00 | 0.53 | 0.00 | 36 | 1005.2 |
| 20260507183004 | 16 | 314 | 1.6 | 9.7 | 0.00 | 0.58 | 0.00 | 34 | 1005.3 |
| 20260507181539 | 17 | 288 | 1.6 | 9.7 | 0.00 | 0.58 | 0.00 | 37 | 1005.2 |
| 20260507180002 | 17 | 296 | 3.2 | 11.3 | 0.00 | 0.58 | 0.00 | 34 | 1005.2 |
| 20260507174544 | 17 | 280 | 1.6 | 11.3 | 0.00 | 0.58 | 0.00 | 40 | 1005.1 |
| 20260507173041 | 16 | 262 | 1.6 | 11.3 | 0.00 | 0.58 | 0.00 | 42 | 1005.2 |
| 20260507171533 | 16 | 297 | 3.2 | 11.3 | 0.00 | 0.58 | 0.00 | 42 | 1005.5 |
| 20260507170113 | 16 | 283 | 1.6 | 9.7 | 0.00 | 0.58 | 0.00 | 46 | 1005.6 |
| 20260507164534 | 15 | 266 | 6.4 | 12.9 | 0.00 | 0.58 | 0.00 | 48 | 1005.8 |
| 20260507163015 | 15 | 291 | 3.2 | 8.0 | 0.00 | 0.58 | 0.00 | 54 | 1005.8 |
| 20260507161532 | 15 | 107 | 0.0 | 11.3 | 0.00 | 0.58 | 0.00 | 56 | 1006.0 |
| 20260507160021 | 14 | 276 | 0.0 | 6.4 | 0.00 | 0.58 | 0.00 | 58 | 1006.2 |
| 20260507154535 | 14 | 245 | 3.2 | 11.3 | 0.00 | 0.58 | 0.00 | 54 | 1006.3 |
| 20260507153018 | 15 | 291 | 4.8 | 12.9 | 0.00 | 0.58 | 0.00 | 55 | 1006.6 |
| 20260507151532 | 15 | 280 | 0.0 | 4.8 | 0.00 | 0.58 | 0.00 | 55 | 1006.7 |
| 20260507150010 | 14 | 296 | 4.8 | 8.0 | 0.00 | 0.58 | 0.00 | 54 | 1006.8 |
| 20260507144543 | 14 | 303 | 0.0 | 3.2 | 0.00 | 0.58 | 0.00 | 57 | 1006.9 |
| 20260507143008 | 14 | 284 | 1.6 | 11.3 | 0.00 | 0.58 | 0.00 | 55 | 1006.7 |
| 20260507141557 | 14 | 274 | 4.8 | 8.0 | 0.00 | 0.58 | 0.00 | 57 | 1006.7 |
| 20260507140009 | 14 | 255 | 3.2 | 8.0 | 0.00 | 0.58 | 0.00 | 58 | 1006.6 |
| 20260507134550 | 14 | 278 | 0.0 | 3.2 | 0.00 | 0.58 | 0.00 | 57 | 1006.8 |
| 20260507133011 | 13 | 297 | 0.0 | 4.8 | 0.00 | 0.58 | 0.00 | 59 | 1007.0 |
| 20260507131546 | 13 | 305 | 0.0 | 4.8 | 0.00 | 0.58 | 0.00 | 62 | 1007.1 |
| 20260507130025 | 12 | 195 | 0.0 | 6.4 | 0.00 | 0.58 | 0.00 | 62 | 1007.0 |
| 20260507124512 | 12 | 259 | 1.6 | 11.3 | 0.00 | 0.58 | 0.00 | 62 | 1007.1 |
| 20260507123004 | 11 | 295 | 0.0 | 3.2 | 0.00 | 0.58 | 0.00 | 57 | 1007.3 |
| 20260507121544 | 10 | 290 | 0.0 | 3.2 | 0.00 | 0.58 | 0.00 | 51 | 1007.3 |
| 20260507120006 | 10 | 289 | 1.6 | 4.8 | 0.00 | 0.58 | 0.00 | 48 | 1007.5 |
| 20260507114545 | 9 | 86 | 0.0 | 1.6 | 0.00 | 0.58 | 0.00 | 32 | 1007.2 |
| 20260507113026 | 8 | 38 | 0.0 | 1.6 | 0.00 | 0.58 | 0.00 | 23 | 1007.3 |
| 20260507111551 | 8 | 72 | 0.0 | 0.0 | 0.00 | 0.58 | 0.00 | 18 | 1007.2 |
| 20260507110018 | 8 | 62 | 0.0 | 0.0 | 0.00 | 0.58 | 0.00 | 11 | 1007.0 |
| 20260507104539 | 8 | 62 | 0.0 | 0.0 | 0.00 | 0.58 | 0.00 | 14 | 1007.0 |
| 20260507103017 | 8 | 350 | 0.0 | 1.6 | 0.00 | 0.58 | 0.00 | 12 | 1007.0 |
| 20260507101556 | 8 | 101 | 0.0 | 1.6 | 0.00 | 0.58 | 0.00 | 10 | 1006.8 |
| 20260507100040 | 8 | 282 | 0.0 | 1.6 | 0.00 | 0.58 | 0.00 | 12 | 1007.1 |
| 20260507094539 | 8 | 292 | 0.0 | 3.2 | 0.00 | 0.58 | 0.00 | 11 | 1006.8 |
| 20260507093012 | 8 | 307 | 0.0 | 1.6 | 0.00 | 0.58 | 0.00 | 11 | 1006.9 |
| 20260507091550 | 8 | 82 | 0.0 | 1.6 | 0.00 | 0.58 | 0.00 | 9 | 1006.5 |
| 20260507090012 | 8 | 329 | 0.0 | 0.0 | 0.00 | 0.58 | 0.00 | 8 | 1006.8 |
| 20260507084550 | 8 | 331 | 0.0 | 3.2 | 0.00 | 0.58 | 0.00 | 10 | 1006.3 |
| 20260507083011 | 8 | 23 | 0.0 | 1.6 | 0.00 | 0.58 | 0.00 | 9 | 1006.3 |
| 20260507081549 | 8 | 66 | 0.0 | 1.6 | 0.00 | 0.58 | 0.00 | 14 | 1006.0 |
| 20260507080035 | 9 | 291 | 0.0 | 3.2 | 0.00 | 0.58 | 0.00 | 16 | 1006.6 |
| 20260507074527 | 9 | 303 | 0.0 | 3.2 | 0.00 | 0.58 | 0.00 | 15 | 1006.3 |
| 20260507073004 | 9 | 4 | 0.0 | 6.4 | 0.00 | 0.58 | 0.00 | 11 | 1006.0 |
| 20260507071543 | 9 | 299 | 0.0 | 4.8 | 0.00 | 0.58 | 0.00 | 7 | 1006.2 |
| 20260507070009 | 9 | 306 | 0.0 | 4.8 | 0.00 | 0.58 | 0.00 | 7 | 1005.6 |
| 20260507064605 | 9 | 280 | 0.0 | 9.7 | 0.00 | 0.58 | 0.00 | 7 | 1005.8 |
| 20260507063047 | 9 | 284 | 0.0 | 3.2 | 0.00 | 0.58 | 0.58 | 6 | 1005.5 |
| 20260507061538 | 10 | 290 | 0.0 | 1.6 | 0.00 | 0.58 | 0.58 | 3 | 1005.7 |
| 20260507060017 | 10 | 284 | 1.6 | 6.4 | 0.00 | 0.58 | 0.58 | 3 | 1005.8 |
| 20260507054545 | 10 | 271 | 0.0 | 4.8 | 0.00 | 0.58 | 0.58 | 100 | 1005.8 |
| 20260507053040 | 10 | 290 | 1.6 | 4.8 | 0.00 | 0.58 | 0.58 | 100 | 1005.9 |
| 20260507051535 | 10 | 276 | 0.0 | 3.2 | 0.00 | 0.58 | 0.58 | 100 | 1005.5 |
| 20260507050013 | 11 | 262 | 0.0 | 6.4 | 0.00 | 0.58 | 0.58 | 100 | 1005.3 |
| 20260507044540 | 11 | 288 | 0.0 | 6.4 | 0.00 | 0.58 | 0.58 | 100 | 1005.7 |
| 20260507043038 | 11 | 285 | 1.6 | 9.7 | 0.00 | 0.58 | 0.58 | 100 | 1005.6 |
| 20260507041546 | 11 | 279 | 0.0 | 3.2 | 0.00 | 0.58 | 0.58 | 100 | 1005.3 |
| 20260507040008 | 12 | 288 | 1.6 | 4.8 | 0.00 | 0.58 | 0.58 | 100 | 1005.2 |
| 20260507034549 | 12 | 262 | 0.0 | 9.7 | 0.00 | 0.58 | 0.58 | 2 | 1004.8 |
| 20260507033012 | 13 | 305 | 3.2 | 9.7 | 0.00 | 0.58 | 0.58 | 100 | 1005.0 |
| 20260507031546 | 13 | 300 | 0.0 | 8.0 | 0.00 | 0.58 | 0.58 | 100 | 1004.9 |
| 20260507030005 | 15 | 277 | 1.6 | 6.4 | 0.00 | 0.58 | 0.58 | 100 | 1004.6 |
| 20260507024544 | 15 | 288 | 0.0 | 6.4 | 0.00 | 0.58 | 0.58 | 100 | 1004.4 |
| 20260507023005 | 15 | 248 | 0.0 | 4.8 | 0.00 | 0.58 | 0.58 | 100 | 1004.2 |
| 20260507021552 | 15 | 250 | 0.0 | 3.2 | 0.00 | 0.58 | 0.58 | 100 | 1004.2 |
| 20260507020044 | 15 | 266 | 3.2 | 8.0 | 0.00 | 0.58 | 0.58 | 100 | 1004.4 |
| 20260507014553 | 15 | 284 | 1.6 | 6.4 | 0.00 | 0.58 | 0.58 | 100 | 1004.5 |
| 20260507013038 | 15 | 240 | 0.0 | 4.8 | 0.00 | 0.58 | 0.58 | 100 | 1004.6 |
| 20260507011531 | 15 | 101 | 3.2 | 6.4 | 0.00 | 0.58 | 0.58 | 100 | 1004.7 |
| 20260507010013 | 15 | 225 | 0.0 | 6.4 | 0.00 | 0.58 | 0.58 | 100 | 1004.6 |
| 20260507004549 | 15 | 233 | 1.6 | 9.7 | 0.00 | 0.58 | 0.58 | 100 | 1004.6 |
| 20260507003026 | 15 | 249 | 1.6 | 6.4 | 0.03 | 0.58 | 0.58 | 100 | 1004.6 |
| 20260507001607 | 15 | 210 | 0.0 | 8.0 | 0.03 | 0.58 | 0.58 | 100 | 1004.5 |
| 20260507000030 | 15 | 224 | 0.0 | 8.0 | 0.03 | 0.58 | 0.58 | 100 | 1004.4 |
| 20260506234547 | 15 | 233 | 1.6 | 8.0 | 0.03 | 0.58 | 0.58 | 100 | 1004.4 |
| 20260506233024 | 15 | 224 | 1.6 | 6.4 | 0.00 | 0.56 | 0.56 | 100 | 1004.3 |
| 20260506231602 | 15 | 152 | 1.6 | 8.0 | 0.00 | 0.56 | 0.56 | 100 | 1004.6 |
| 20260506230026 | 15 | 210 | 1.6 | 11.3 | 0.03 | 0.56 | 0.56 | 100 | 1004.6 |
| 20260506224504 | 15 | 268 | 1.6 | 12.9 | 0.08 | 0.56 | 0.56 | 100 | 1004.6 |
| 20260506223026 | 15 | 199 | 3.2 | 9.7 | 0.08 | 0.56 | 0.56 | 100 | 1004.6 |